Total_Precipitation_Accumulation
1.68 1.36 2.18 2.29 2.05 1.81 1.73 1.75 1.86 1.94 1.96 1.86 1.84 1.77 1.60 1.38 1.22 1.13 1.01 0.99 0.96 0.94 0.93 0.91 0.97 1.02 0.99 0.97 0.99 1.02 1.05 0.97 0.95 0.93 0.85 0.89 1.04 1.02 0.99 1.21 1.73 2.12 1.50
1.03 1.10 2.03 2.19 1.93 1.76 1.66 1.78 1.96 2.00 2.08 2.01 1.85 1.71 1.54 1.32 1.13 1.03 1.01 0.92 0.90 0.90 0.91 0.91 0.95 1.06 1.09 1.03 1.06 1.11 1.04 1.01 1.04 1.10 1.13 1.16 1.11 1.07 1.03 1.17 1.60 1.93 1.48
0.80 0.94 1.53 2.10 1.93 1.85 1.84 1.86 1.91 1.97 1.94 1.75 1.65 1.55 1.44 1.27 1.12 1.03 0.99 0.91 0.85 0.88 0.82 0.81 0.85 0.95 1.01 1.06 1.06 1.02 0.93 0.97 1.06 1.27 1.75 2.24 1.63 1.25 1.25 1.24 1.42 1.42 1.33
0.82 0.88 1.15 1.90 1.98 1.96 1.97 1.93 1.83 1.76 1.72 1.54 1.47 1.40 1.31 1.29 1.20 1.09 1.01 0.95 0.85 0.80 0.79 0.81 0.79 0.85 0.91 0.92 0.98 0.92 0.85 0.96 1.08 1.34 1.81 2.32 2.12 1.63 1.50 1.46 1.52 1.33 1.27
0.87 0.94 1.32 1.99 2.01 1.99 1.96 1.93 1.95 1.75 1.66 1.49 1.31 1.31 1.28 1.27 1.17 1.12 1.03 0.93 0.84 0.81 0.77 0.79 0.81 0.86 0.95 0.93 0.90 0.87 0.87 1.00 1.21 1.14 1.45 1.96 2.42 2.06 1.56 1.56 1.61 1.41 1.36
0.96 1.04 1.37 1.86 1.95 1.94 1.93 1.93 1.85 1.65 1.52 1.43 1.27 1.27 1.30 1.26 1.18 1.11 1.01 0.94 0.86 0.86 0.81 0.81 0.88 0.96 1.03 0.99 0.95 0.99 1.05 1.07 1.03 1.15 1.48 1.86 2.34 2.12 1.66 1.54 1.45 1.52 1.46
1.02 1.03 1.29 1.72 1.80 1.85 1.78 1.64 1.61 1.58 1.44 1.29 1.23 1.20 1.19 1.17 1.13 1.07 1.12 1.08 0.95 0.90 0.86 0.87 0.95 0.98 1.02 1.01 1.02 1.09 1.16 1.04 0.98 1.26 1.40 1.76 1.90 1.89 1.63 1.47 1.50 1.71 1.61
1.09 1.00 1.09 1.46 1.60 1.63 1.60 1.55 1.57 1.53 1.40 1.23 1.14 1.12 1.11 1.12 1.02 0.96 1.01 0.99 0.96 0.94 0.91 0.87 0.92 0.87 0.92 1.00 1.07 1.15 1.24 1.08 0.94 1.11 1.19 1.53 1.95 1.99 1.58 1.46 1.52 1.71 1.80
1.36 1.17 1.06 1.16 1.32 1.42 1.56 1.59 1.67 1.64 1.54 1.36 1.18 1.12 1.09 1.00 0.87 0.80 0.89 0.94 0.95 0.92 0.92 0.93 0.98 0.93 0.95 1.09 1.18 1.25 1.28 1.10 1.06 1.10 0.99 1.53 2.10 1.86 1.50 1.34 1.38 1.55 1.65
1.34 1.29 1.18 1.17 1.21 1.26 1.39 1.60 1.80 1.88 1.93 1.65 1.29 1.19 1.06 0.90 0.82 0.83 0.84 0.93 1.00 1.03 1.04 1.09 1.13 1.07 1.13 1.13 1.16 1.18 1.11 0.94 1.00 0.99 1.20 1.49 1.98 1.83 1.46 1.28 1.26 1.24 1.30
0.96 1.04 1.09 1.11 1.19 1.21 1.23 1.34 1.69 1.87 2.01 1.66 1.20 1.21 1.09 0.87 0.82 0.89 0.90 1.17 1.24 1.24 1.28 1.31 1.31 1.30 1.26 1.17 1.19 1.21 0.97 0.74 0.87 1.06 1.29 1.59 1.96 1.85 1.46 1.28 1.09 1.06 1.08
0.77 0.73 0.75 0.76 0.83 0.97 1.04 1.32 1.64 1.69 1.80 1.46 1.20 1.21 1.14 1.20 1.11 0.89 0.94 1.28 1.42 1.46 1.37 1.34 1.41 1.33 1.14 0.93 0.92 0.94 0.81 0.79 0.88 1.01 1.22 1.73 2.07 1.87 1.50 1.27 1.05 0.99 1.00
0.57 0.56 0.55 0.59 0.61 0.75 1.02 1.31 1.58 1.70 1.77 1.70 1.64 1.43 1.38 1.31 1.10 0.94 0.92 1.00 1.09 1.17 1.10 1.20 1.24 1.07 0.99 0.88 0.87 0.81 0.74 0.85 1.06 1.05 1.30 1.84 2.16 1.95 1.66 1.41 1.14 1.04 1.05
0.59 0.57 0.51 0.45 0.51 0.64 0.80 1.00 1.32 1.52 1.59 1.56 1.51 1.22 1.27 1.29 1.12 1.06 1.15 1.19 1.14 1.14 1.29 1.33 1.31 1.22 1.06 0.88 0.86 0.90 0.86 0.86 1.06 1.17 1.40 1.65 2.04 2.25 2.00 1.66 1.42 1.33 1.29
0.66 0.75 0.71 0.56 0.54 0.62 0.72 0.73 0.89 1.06 1.16 1.39 1.46 1.11 1.05 1.08 1.17 1.18 1.08 1.23 1.29 1.30 1.32 1.34 1.24 1.18 1.20 1.06 1.08 1.10 1.10 0.96 1.04 1.09 1.24 1.35 1.71 2.27 2.42 2.13 1.89 1.72 1.59
0.51 0.63 0.68 0.68 0.71 0.72 0.68 0.62 0.60 0.65 0.79 0.95 0.98 0.86 0.84 0.87 1.03 1.21 1.11 1.10 1.19 1.37 1.45 1.41 1.29 1.34 1.34 1.18 1.17 1.23 1.21 1.13 1.15 1.19 1.30 1.22 1.21 1.58 2.06 2.30 2.30 2.15 1.94
0.42 0.47 0.55 0.61 0.68 0.74 0.81 0.78 0.63 0.63 0.70 0.72 0.72 0.73 0.78 0.79 0.94 1.13 1.08 1.00 1.00 1.17 1.36 1.51 1.54 1.53 1.34 1.26 1.24 1.27 1.21 1.19 1.19 1.36 1.37 1.37 1.21 1.12 1.42 1.73 2.03 2.14 2.16
0.41 0.41 0.47 0.48 0.54 0.65 0.79 0.87 0.83 0.80 0.78 0.70 0.63 0.57 0.59 0.62 0.71 0.92 1.00 0.95 0.95 1.12 1.37 1.59 1.72 1.76 1.59 1.53 1.57 1.48 1.30 1.26 1.24 1.36 1.39 1.43 1.49 1.22 1.10 1.12 1.32 1.59 1.80
0.39 0.39 0.41 0.44 0.47 0.53 0.66 0.75 0.75 0.74 0.73 0.70 0.65 0.55 0.49 0.51 0.61 0.83 1.04 1.10 1.11 1.25 1.38 1.40 1.64 1.75 1.81 1.74 1.61 1.49 1.40 1.40 1.38 1.31 1.47 1.47 1.46 1.36 1.18 0.91 0.82 0.94 1.23
0.39 0.39 0.42 0.43 0.43 0.45 0.49 0.57 0.65 0.62 0.62 0.66 0.62 0.60 0.63 0.70 0.76 0.97 1.22 1.30 1.40 1.46 1.56 1.74 2.01 2.03 1.92 1.93 1.75 1.54 1.41 1.42 1.44 1.50 1.52 1.51 1.52 1.35 1.19 1.02 0.89 0.67 0.80
0.34 0.36 0.39 0.42 0.42 0.40 0.36 0.41 0.47 0.49 0.58 0.66 0.73 0.78 0.82 0.84 0.92 1.14 1.36 1.61 1.76 1.65 1.69 1.92 2.20 2.35 2.18 2.02 2.09 1.97 1.80 1.60 1.55 1.51 1.50 1.56 1.57 1.50 1.36 1.28 1.17 1.01 0.88
0.22 0.27 0.34 0.35 0.32 0.29 0.26 0.31 0.40 0.47 0.55 0.71 0.87 1.05 1.03 0.98 1.02 1.06 1.30 1.51 1.60 1.69 1.75 1.88 2.15 2.48 2.32 2.06 2.26 2.63 2.42 2.20 1.75 1.41 1.53 1.58 1.63 1.59 1.47 1.30 1.25 1.18 1.12
0.19 0.23 0.27 0.30 0.30 0.28 0.33 0.52 0.79 1.04 1.14 1.19 1.22 1.42 1.45 1.37 1.32 1.29 1.33 1.47 1.57 1.70 1.82 1.88 1.93 2.24 2.35 2.20 2.19 2.73 2.70 2.51 2.31 1.81 1.47 1.50 1.61 1.69 1.68 1.55 1.39 1.31 1.24
0.19 0.23 0.26 0.29 0.36 0.37 0.51 0.82 1.21 1.54 1.64 1.64 1.75 1.80 1.87 1.78 1.62 1.61 1.63 1.72 1.67 1.64 1.70 1.72 1.73 1.94 2.30 2.39 2.24 2.11 2.07 2.16 2.50 2.24 1.71 1.52 1.53 1.56 1.67 1.56 1.57 1.58 1.57
0.25 0.30 0.34 0.41 0.55 0.71 0.85 1.01 1.31 1.48 1.57 1.71 1.86 2.07 2.22 2.28 2.19 2.12 2.08 1.95 1.76 1.70 1.74 1.77 1.78 1.86 1.99 2.17 2.16 2.02 1.97 1.92 1.82 2.02 2.00 1.76 1.55 1.45 1.53 1.59 1.62 1.63 1.70
0.40 0.45 0.49 0.61 0.72 0.80 0.90 1.03 1.18 1.24 1.38 1.59 1.76 1.98 2.13 2.21 2.18 2.11 1.98 1.76 1.59 1.54 1.62 1.76 1.80 1.86 1.86 1.95 1.93 1.83 1.83 1.79 1.71 1.88 1.87 1.86 1.81 1.46 1.34 1.41 1.48 1.52 1.52